Terminal Aerodrome Forecast
Issued by NWS Portland, ME

Home | Current Version | Previous Version | Text Only | Print | Product List | Glossary On
Versions: 1 2 3 4 5 6 7 8 9 10 11 12 13 14 15 16 17 18 19 20 21 22 23 24 25 26 27 28 29 30 31 32 33 34 35
175
FTUS41 KGYX 240530
TAFPWM
TAF
KPWM 240530Z 2406/2506 03015G21KT P6SM FEW070 OVC100 WS015/09040KT
     FM240900 05018G26KT 2SM PLSN OVC015 WS015/07050KT
     FM241400 04015G23KT 3SM +RA OVC007
     FM250000 01018G26KT 3/4SM -DZ BR OVC003=

USA.gov is the U.S. government's official web portal to all federal, state and local government web resources and services.